Tracking 28888 objects as of 22-May-2024
HD Live streaming from Space Station
objects crossing your sky now

STARLINK-4500

Track STARLINK-4500 now!
10-day predictions
STARLINK-4500 is classified as:


NORAD ID: 53413
Int'l Code: 2022-097AB
Perigee: 545.5 km
Apogee: 548.2 km
Inclination: 53.2 °
Period: 95.4 minutes
Semi major axis: 6917 km
RCS: Unknown
Launch date: August 10, 2022
Source: United States (US)
Launch site: AIR FORCE EASTERN TEST RANGE (AFETR)
Your satellite tracking list
Your tracking list is empty




NASA's NSSDC Master Catalog

Two Line Element Set (TLE):
1 53413U 22097AB  24143.13435945  .00022639  00000-0  14355-2 0  9996
2 53413  53.2167 181.5163 0001907 134.0497 226.0652 15.08851334 99045
Source of the keplerian elements: AFSPC